Regional Weather Roundup
Issued by NWS

Home | Current Version | Previous Version | Text Only | Print | Product List | Glossary On
Versions: 1 2 3 4 5 6 7 8 9 10 11 12 13 14 15 16 17 18 19 20 21 22 23 24 25 26 27 28 29 30 31 32 33 34 35 36 37 38 39 40 41 42 43 44 45 46 47 48 49 50
000
ASUS44 KFWD 220615
RWRTX
NORTH TEXAS HOURLY WEATHER ROUNDUP
NATIONAL WEATHER SERVICE FORT WORTH TX
100 AM CDT WED OCT 22 2014

NOTE: "FAIR" INDICATES FEW OR NO CLOUDS BELOW 12,000 FEET WITH NO
SIGNIFICANT WEATHER AND/OR OBSTRUCTIONS TO VISIBILITY.

TXZ118-119-220700-
DALLAS/FORT WORTH METROPLEX

CITY           SKY/WX    TMP DP  RH WIND       PRES   REMARKS
DFW AIRPORT    CLEAR     67  59  75 SE3       30.06F
6HR MIN TEMP:  65; 6HR MAX TEMP:  74;

DALLAS LOVE    PTCLDY    67  60  78 SE6       30.06F
6HR MIN TEMP:  67; 6HR MAX TEMP:  77;

FTW MEACHAM    CLEAR     67  58  72 SE5       30.06S
6HR MIN TEMP:  66; 6HR MAX TEMP:  77;

DAL-EXECUTIVE  CLEAR     64  58  80 SE6       30.06F
6HR MIN TEMP:  63; 6HR MAX TEMP:  73;

FTW-ALLIANCE   PTCLDY    60  56  86 CALM      30.06F
6HR MIN TEMP:  59; 6HR MAX TEMP:  73;

FTW-NAS-JRB    CLEAR     69  57  65 E3        30.10F
6HR MIN TEMP:  68; 6HR MAX TEMP:  79;

FTW-SPINKS     PTCLDY    59  57  91 CALM      30.08S
6HR MIN TEMP:  58; 6HR MAX TEMP:  72;

ARLINGTON      CLEAR     59  56  89 CALM      30.07S
6HR MIN TEMP:  59; 6HR MAX TEMP:  76;

GRAND PRAIRIE  CLEAR     66  59  78 CALM      30.08S
6HR MIN TEMP:  66; 6HR MAX TEMP:  76;

ADDISON        CLEAR     69  63  81 SE5       30.08F
6HR MIN TEMP:  67; 6HR MAX TEMP:  77;

MESQUITE       CLEAR     61  59  92 CALM      30.07S
6HR MIN TEMP:  61; 6HR MAX TEMP:  74;

LANCASTER      CLEAR     60  55  84 CALM      30.07S
6HR MIN TEMP:  59; 6HR MAX TEMP:  74;

$$

TXZ091>094-102>105-117-120-121-131>134-220700-
NORTH CENTRAL TEXAS

CITY           SKY/WX    TMP DP  RH WIND       PRES   REMARKS
SHRMAN/DENISON CLEAR     65  60  86 CALM      30.08S
6HR MIN TEMP:  65; 6HR MAX TEMP:  74;

GAINESVILLE    CLEAR     61  58  88 CALM      30.09S
6HR MIN TEMP:  61; 6HR MAX TEMP:  72;

BOWIE          CLEAR     60  56  87 SE3       30.07S
6HR MIN TEMP:  60; 6HR MAX TEMP:  71;

BRIDGEPORT     CLEAR     58  54  87 CALM      30.09S
6HR MIN TEMP:  58; 6HR MAX TEMP:  73;

DECATUR        CLEAR     62  55  76 SE5       30.07F
6HR MIN TEMP:  62; 6HR MAX TEMP:  73;

DENTON         CLEAR     61  58  90 S3        30.07S
6HR MIN TEMP:  60; 6HR MAX TEMP:  74;

MCKINNEY       CLEAR     61  57  87 CALM      30.07S
6HR MIN TEMP:  60; 6HR MAX TEMP:  74;

GREENVILLE     CLEAR     59  55  88 CALM      30.07S
ROCKWALL       CLEAR     66  60  82 S5        30.06S
6HR MIN TEMP:  66; 6HR MAX TEMP:  74;

TERRELL        CLEAR     62  59  90 NE3       30.07S
6HR MIN TEMP:  62; 6HR MAX TEMP:  76;

WAXAHACHIE     CLEAR     63  59  85 CALM      30.08S
6HR MIN TEMP:  63; 6HR MAX TEMP:  72;

CLEBURNE       PTCLDY    64  59  82 CALM      30.08F
GRANBURY       CLEAR     61  54  79 CALM      30.07F
6HR MIN TEMP:  60; 6HR MAX TEMP:  76;

$$

TXZ083>090-098>101-113>116-127>130-139>142-154-155-220700-
WESTERN NORTH TEXAS

CITY           SKY/WX    TMP DP  RH WIND       PRES   REMARKS
WICHITA FALLS  CLEAR     63  52  67 S10       30.05F
6HR MIN TEMP:  60; 6HR MAX TEMP:  75;

WF-KICKAPOO    CLEAR     61  51  69 SE8       30.07S
6HR MIN TEMP:  61; 6HR MAX TEMP:  75;

VERNON         CLEAR     63  52  67 SE6       30.06S
ABILENE        PTCLDY    63  50  62 SE9       30.07F
6HR MIN TEMP:  63; 6HR MAX TEMP:  75;

ABILENE-DYESS  PTCLDY    66  51  57 SE12      30.06F
6HR MIN TEMP:  63; 6HR MAX TEMP:  74;

BRECKENRIDGE   PTCLDY    64  48  56 SE8       30.06S
6HR MIN TEMP:  64; 6HR MAX TEMP:  76;

GRAHAM         CLEAR     64  53  66 SE7       30.05S
6HR MIN TEMP:  64; 6HR MAX TEMP:  75;

MINERAL WELLS  CLEAR     60  54  80 SE7       30.06S
6HR MIN TEMP:  60; 6HR MAX TEMP:  74;

STEPHENVILLE   PTCLDY    63  52  67 SE3       30.09F
6HR MIN TEMP:  60; 6HR MAX TEMP:  73;

COMANCHE       MOCLDY    60  52  74 SE3       30.08S
6HR MIN TEMP:  60; 6HR MAX TEMP:  72;

BROWNWOOD      CLOUDY    63  50  63 CALM      30.08R
COLEMAN        MOCLDY    66  51  57 S5        30.08S
6HR MIN TEMP:  66; 6HR MAX TEMP:  75;

BRADY          CLEAR     63  48  59 E3        30.07F
$$

TXZ143>147-156>162-174-175-220700-
CENTRAL TEXAS

CITY           SKY/WX    TMP DP  RH WIND       PRES   REMARKS
WACO           MOCLDY    63  58  83 CALM      30.06F
6HR MIN TEMP:  61; 6HR MAX TEMP:  73;

WACO-MCGREGOR  MOCLDY    63  52  67 S3        30.07S
6HR MIN TEMP:  63; 6HR MAX TEMP:  75;

HILLSBORO      PTCLDY    66  58  74 E6        30.06F
6HR MIN TEMP:  65; 6HR MAX TEMP:  74;

CORSICANA      CLEAR     66  61  84 E5        30.07S
6HR MIN TEMP:  65; 6HR MAX TEMP:  75;

MEXIA          PTCLDY    64  60  86 E3        30.05F
6HR MIN TEMP:  64; 6HR MAX TEMP:  73;

HEARNE         PTCLDY    63  60  89 CALM      30.06S
6HR MIN TEMP:  63; 6HR MAX TEMP:  73;

CAMERON        PTCLDY    64  59  83 CALM      30.05F
6HR MIN TEMP:  63; 6HR MAX TEMP:  75;

TEMPLE         MOCLDY    64  55  72 E6        30.05F
6HR MIN TEMP:  64; 6HR MAX TEMP:  72;

KILLEEN        MOCLDY    70  55  60 E7        30.06S
KILLEEN-SKYLRK MOCLDY    64  54  68 CALM      30.06R
6HR MIN TEMP:  63; 6HR MAX TEMP:  73;

FORT HOOD      MOCLDY    67  57  70 CALM      30.06F
6HR MIN TEMP:  66; 6HR MAX TEMP:  76;

GATESVILLE     MOCLDY    61  54  77 CALM      30.09S
HAMILTON       CLOUDY    63  50  63 SE6       30.08S
6HR MIN TEMP:  61; 6HR MAX TEMP:  72;

LAMPASAS       CLOUDY    60  51  71 CALM      30.06F
6HR MIN TEMP:  60; 6HR MAX TEMP:  71;

$$

TXZ095>097-106>112-122>126-135>138-148>153-164>167-220700-
EAST TEXAS

CITY           SKY/WX    TMP DP  RH WIND       PRES   REMARKS
PARIS          CLEAR     63  54  72 CALM      30.09S
6HR MIN TEMP:  63; 6HR MAX TEMP:  73;

SULPHUR SPRNGS CLEAR     62  60  95 CALM      30.09S
6HR MIN TEMP:  62; 6HR MAX TEMP:  74;

MOUNT PLEASANT CLEAR     60  60 100 CALM      30.10R
6HR MIN TEMP:  57; 6HR MAX TEMP:  72;

MINEOLA        CLEAR     61  61 100 CALM      30.08S FOG
TYLER          CLEAR     65  60  84 CALM      30.06F
6HR MIN TEMP:  64; 6HR MAX TEMP:  74;

LONGVIEW       CLEAR     61  59  93 E3        30.07R FOG
6HR MIN TEMP:  61; 6HR MAX TEMP:  70;

MARSHALL       PTCLDY    61  59  92 CALM      30.09S
6HR MIN TEMP:  61; 6HR MAX TEMP:  71;

ATHENS         CLEAR     59  57  94 CALM      30.06S
PALESTINE      CLEAR     65  62  90 CALM      30.07S
JACKSONVILLE   CLEAR     67  62  84 CALM      30.08F
HENDERSON      CLEAR     59  59 100 CALM      30.08S FOG
6HR MIN TEMP:  59; 6HR MAX TEMP:  69;

NACOGDOCHES    CLEAR     57  55  94 CALM      30.06F
6HR MIN TEMP:  57; 6HR MAX TEMP:  70;

LUFKIN         PTCLDY    63  59  87 CALM      30.05F FOG
6HR MIN TEMP:  63; 6HR MAX TEMP:  73;

$$

SUPPLEMENTAL OBSERVATIONS (CENTRAL)

CITY           SKY/WX    TMP DP  RH WIND       PRES   REMARKS
LAKE TEXOMA      N/A     63  59  88 E6          N/A
CADDO GRASSLND   N/A     61  57  88 CALM        N/A
PAT MAYSE LAKE   N/A     64  61  88 CALM        N/A
PALESTINE        N/A     59  57  94 CALM        N/A
MCGREGOR         N/A     66  57  72 SE5         N/A
TEMPLE           N/A     66  57  72 E5          N/A
$$

SUPPLEMENTAL OBSERVATIONS (WEST)

CITY           SKY/WX    TMP DP  RH WIND       PRES   REMARKS



USA.gov is the U.S. government's official web portal to all federal, state and local government web resources and services.